BRU748 LLBG-UMMS

Flight info

Callsign BRU748
Flight time N/A
Altitude 34000
Route SUVAS N128 TEZAK L324 SAFTA DCT TOMBI UA16 AYT/N0458F350 UR55 MUT/N0459F340 UA285 SELVI/N0457F350 UA285 SIV UW706 TBN UG67 SARPI DCT LURIS/K0846F350 A955 ALUBA DCT KUDAS DCT ITAKA/K0856F360 DCT TUVGI DCT EVZUN DCT ZIZAR DCT VAZLU DCT UZZID DCT NOKLI/K0861F370 N72 WGD G481 OBABI T619 LUGIL/K0867F360 T619 UMRAL/K0865F370 P163 LADIM/K0867F360 P163 GOLRI L736 ASKIL M863 RUHAL RUHAL2H
Aircraft B38M/M-SDE1FGHILORVWXY/HB1

Departure

Time 2026-04-30 06:38
Airport Ben Gurion International Airport (LLBG)

Arrival

Time N/A
Airport Minsk National Airport (UMMS)
Time Latitude Longitude Altitude Speed Heading
2026-04-30 06:21 32.00510 34.87476 119 ft 0 kts 272°
2026-04-30 06:30 32.00508 34.87493 120 ft 2 kts 297°
2026-04-30 06:30 32.00500 34.87510 117 ft 2 kts 296°
2026-04-30 06:30 32.00492 34.87527 119 ft 2 kts 294°
2026-04-30 06:31 32.00489 34.87546 122 ft 2 kts 254°
2026-04-30 06:31 32.00496 34.87564 118 ft 2 kts 241°
2026-04-30 06:31 32.00504 34.87580 120 ft 2 kts 239°
2026-04-30 06:31 32.00513 34.87597 120 ft 2 kts 238°
2026-04-30 06:32 32.00522 34.87613 118 ft 2 kts 236°
2026-04-30 06:32 32.00531 34.87629 118 ft 2 kts 235°
2026-04-30 06:32 32.00540 34.87644 119 ft 2 kts 233°
2026-04-30 06:32 32.00551 34.87659 118 ft 2 kts 226°
2026-04-30 06:33 32.00565 34.87667 121 ft 2 kts 186°
2026-04-30 06:33 32.00581 34.87667 121 ft 2 kts 173°
2026-04-30 06:33 32.00597 34.87663 117 ft 2 kts 155°
2026-04-30 06:33 32.00601 34.87660 117 ft 0 kts 145°
2026-04-30 06:34 32.00599 34.87664 117 ft 3 kts 130°
2026-04-30 06:34 32.00572 34.87723 120 ft 12 kts 117°
2026-04-30 06:34 32.00528 34.87813 119 ft 13 kts 122°
2026-04-30 06:35 32.00479 34.87907 121 ft 14 kts 122°
2026-04-30 06:35 32.00425 34.88009 120 ft 15 kts 122°
2026-04-30 06:35 32.00370 34.88118 121 ft 16 kts 120°
2026-04-30 06:35 32.00309 34.88233 120 ft 17 kts 122°
2026-04-30 06:36 32.00246 34.88355 119 ft 18 kts 121°
2026-04-30 06:36 32.00178 34.88482 121 ft 19 kts 122°
2026-04-30 06:36 32.00115 34.88602 120 ft 16 kts 121°
2026-04-30 06:36 32.00085 34.88705 122 ft 14 kts 82°
2026-04-30 06:37 32.00127 34.88809 123 ft 14 kts 56°
2026-04-30 06:37 32.00181 34.88911 123 ft 15 kts 59°
2026-04-30 06:37 32.00264 34.88909 121 ft 15 kts 306°
2026-04-30 06:37 32.00402 34.88648 120 ft 73 kts 301°
2026-04-30 06:38 32.00791 34.87893 120 ft 140 kts 301°
2026-04-30 06:38 32.01401 34.86737 231 ft 182 kts 302°
2026-04-30 06:38 32.02050 34.85440 958 ft 189 kts 296°
2026-04-30 06:38 32.02387 34.83898 1656 ft 201 kts 270°
2026-04-30 06:39 32.02161 34.82234 2199 ft 220 kts 253°
2026-04-30 06:39 32.01695 34.80464 2926 ft 231 kts 252°
2026-04-30 06:39 32.01241 34.78587 3666 ft 239 kts 254°
2026-04-30 06:39 32.00846 34.76761 4941 ft 224 kts 253°
2026-04-30 06:40 32.00469 34.74975 5837 ft 226 kts 253°
2026-04-30 06:40 32.00260 34.73754 6298 ft 236 kts 264°
2026-04-30 06:40 32.00681 34.71080 6973 ft 260 kts 283°
2026-04-30 06:40 32.01144 34.69040 7783 ft 263 kts 283°
2026-04-30 06:41 32.01631 34.66896 8311 ft 280 kts 283°
2026-04-30 06:41 32.02149 34.64628 8981 ft 288 kts 283°
2026-04-30 06:41 32.02500 34.63092 9606 ft 289 kts 284°
2026-04-30 06:41 32.03203 34.60018 10446 ft 303 kts 284°
2026-04-30 06:42 32.03582 34.58360 10669 ft 316 kts 284°
2026-04-30 06:43 32.06156 34.47078 12591 ft 365 kts 284°
2026-04-30 06:43 32.06817 34.44176 13262 ft 369 kts 284°
2026-04-30 06:43 32.07483 34.41242 13951 ft 372 kts 284°
2026-04-30 06:43 32.08154 34.38291 14555 ft 374 kts 284°
2026-04-30 06:44 32.08829 34.35315 15188 ft 376 kts 284°
2026-04-30 06:44 32.09508 34.32316 15798 ft 379 kts 284°
2026-04-30 06:44 32.10180 34.29345 16392 ft 381 kts 284°
2026-04-30 06:44 32.10865 34.26314 16980 ft 384 kts 285°
2026-04-30 06:45 32.11554 34.23263 17567 ft 386 kts 285°
2026-04-30 06:45 32.12246 34.20193 18148 ft 389 kts 285°
2026-04-30 06:45 32.12943 34.17098 18651 ft 392 kts 285°
2026-04-30 06:45 32.13642 34.13986 19172 ft 393 kts 285°
2026-04-30 06:46 32.14344 34.10862 19687 ft 395 kts 285°
2026-04-30 06:46 32.15048 34.07725 20192 ft 396 kts 285°
2026-04-30 06:46 32.15753 34.04575 20702 ft 398 kts 285°
2026-04-30 06:46 32.16465 34.01406 21196 ft 399 kts 286°
2026-04-30 06:47 32.17587 33.98414 21670 ft 401 kts 302°
2026-04-30 06:47 32.19172 33.95690 22142 ft 403 kts 303°
2026-04-30 06:47 32.20777 33.92961 22594 ft 405 kts 304°
2026-04-30 06:47 32.22400 33.90232 23079 ft 407 kts 304°
2026-04-30 06:48 32.24038 33.87497 23537 ft 409 kts 304°
2026-04-30 06:48 32.25688 33.84751 23930 ft 411 kts 304°
2026-04-30 06:48 32.27347 33.81993 24290 ft 413 kts 304°
2026-04-30 06:48 32.29020 33.79209 24578 ft 417 kts 304°
2026-04-30 06:49 32.30701 33.76410 24976 ft 418 kts 304°
2026-04-30 06:49 32.32389 33.73599 25314 ft 420 kts 304°
2026-04-30 06:49 32.34060 33.70813 25668 ft 422 kts 304°
2026-04-30 06:49 32.35779 33.67945 26010 ft 424 kts 304°
2026-04-30 06:50 32.37462 33.65135 26388 ft 424 kts 304°
2026-04-30 06:50 32.39175 33.62273 26717 ft 426 kts 304°
2026-04-30 06:50 32.40893 33.59401 27041 ft 428 kts 304°
2026-04-30 06:50 32.42616 33.56517 27368 ft 430 kts 304°
2026-04-30 06:51 32.44346 33.53620 27688 ft 432 kts 304°
2026-04-30 06:51 32.46082 33.50710 28009 ft 433 kts 304°
2026-04-30 06:51 32.47825 33.47787 28314 ft 435 kts 304°
2026-04-30 06:51 32.49577 33.44846 28668 ft 436 kts 303°
2026-04-30 06:52 32.51321 33.41916 29123 ft 434 kts 303°
2026-04-30 06:52 32.53058 33.38997 29573 ft 433 kts 303°